Weather History for KFHU - July, 2013

Change the Weather History Date:

Thursday, July 18, 2013

  Actual Average Record
Temperature  
Mean Temperature 74 °F -  
Max Temperature 82 °F 88 °F 101 °F (1989)
Min Temperature 66 °F 69 °F 61 °F (1986)
Cooling Degree Days 9    
Growing Degree Days 24 (Base 50)    
Moisture  
Dew Point 57 °F    
Average Humidity 56    
Maximum Humidity 78    
Minimum Humidity 41    
Precipitation  
Precipitation 0.00 in - - ()
Sea Level Pressure  
Sea Level Pressure 29.98 in    
Wind  
Wind Speed 8 mph (East)    
Max Wind Speed 21 mph    
Max Gust Speed 20 mph    
Visibility 10 miles    
Events      
Averages and records for this station are not official NWS values.
T = Trace of Precipitation, MM = Missing Value Source: NWS Daily Summary

Daily Weather History Graph

Daily Weather History Graph

Search for Another Location

Airport or City:

Trip Planner

Search our weather history database for the weather conditions in past years. The results will help you decide how hot, cold, wet, or windy it might be!

Date:

Astronomy

Jul. 18, 2013 Rise Set
Actual Time 5:28 AM MST 7:26 PM MST
Civil Twilight 5:01 AM MST 7:53 PM MST
Nautical Twilight 4:28 AM MST 8:26 PM MST
Astronomical Twilight 3:53 AM MST 9:01 PM MST
Moon 3:28 PM MST (7/18) 1:18 AM MST (7/18)
Length of Visible Light 14h 51m
Length of Day
13h 57m
Waxing Gibbous, 78% of the Moon is Illuminated
Jul 18
Waxing Gibbous
Jul 22
Full
Jul 29
Last Quarter
Aug 6
New
Aug 14
First Quarter

Hourly Weather History & Observations

Time (MST) Temp. Heat Index Dew Point Humidity Pressure Visibility Wind Dir Wind Speed Gust Speed Precip Events Conditions
12:55 AM 71.6 °F - 55.4 °F 57% 30.00 in 10.0 mi ESE 4.6 mph - N/A   Overcast
1:55 AM 71.6 °F - 57.2 °F 60% 29.99 in 10.0 mi Calm Calm - N/A   Mostly Cloudy
2:55 AM 68.0 °F - 60.8 °F 78% 29.98 in 10.0 mi East 3.5 mph - N/A   Mostly Cloudy
3:55 AM 66.2 °F - 59.0 °F 78% 30.00 in 10.0 mi NE 5.8 mph - N/A   Scattered Clouds
4:55 AM 66.2 °F - 57.2 °F 73% 29.99 in 10.0 mi SE 5.8 mph - N/A   Partly Cloudy
5:55 AM 66.2 °F - 57.2 °F 73% 30.01 in 10.0 mi SSE 11.5 mph - N/A   Partly Cloudy
6:55 AM 69.8 °F - 57.2 °F 64% 30.02 in 10.0 mi SE 11.5 mph - N/A   Partly Cloudy
7:55 AM 71.6 °F - 57.2 °F 60% 30.04 in 10.0 mi East 9.2 mph - N/A   Partly Cloudy
8:55 AM 73.4 °F - 57.2 °F 57% 30.03 in 10.0 mi ESE 11.5 mph - N/A   Scattered Clouds
9:55 AM 75.2 °F - 55.4 °F 50% 30.02 in 10.0 mi East 11.5 mph 19.6 mph N/A   Scattered Clouds
10:55 AM 77.0 °F - 55.4 °F 47% 30.00 in 10.0 mi ESE 15.0 mph 19.6 mph N/A   Scattered Clouds
11:55 AM 78.8 °F - 55.4 °F 44% 29.99 in 10.0 mi East 8.1 mph - N/A   Mostly Cloudy
12:55 PM 80.6 °F 80.5 °F 55.4 °F 42% 29.96 in 10.0 mi ENE 9.2 mph 16.1 mph N/A   Mostly Cloudy
1:55 PM 80.6 °F 80.5 °F 55.4 °F 42% 29.94 in 10.0 mi East 10.4 mph - N/A   Mostly Cloudy
2:55 PM 80.6 °F 80.5 °F 55.4 °F 42% 30.12 in 10.0 mi East 9.2 mph - N/A   Mostly Cloudy
3:55 PM 80.6 °F 80.5 °F 55.4 °F 42% 29.92 in 10.0 mi NE 9.2 mph - N/A   Mostly Cloudy
4:56 PM 82.0 °F 81.6 °F 55.9 °F 41% 29.90 in 10.0 mi ENE 11.5 mph 19.6 mph N/A   Scattered Clouds
5:56 PM 79.0 °F - 55.0 °F 44% 29.92 in 10.0 mi ENE 13.8 mph - 0.00 in   Clear
6:56 PM 77.0 °F - 54.0 °F 45% 29.94 in 10.0 mi East 11.5 mph - N/A   Mostly Cloudy
7:56 PM 75.0 °F - 55.9 °F 51% 29.95 in 10.0 mi East 11.5 mph - N/A   Clear
8:56 PM 73.9 °F - 57.9 °F 57% 29.96 in 10.0 mi East 9.2 mph - N/A   Partly Cloudy
9:56 PM 72.0 °F - 57.0 °F 59% 29.97 in 10.0 mi SE 9.2 mph - N/A   Overcast
10:55 PM 71.6 °F - 57.2 °F 60% 29.97 in 10.0 mi SSE 20.7 mph - N/A   Overcast
11:55 PM 69.8 °F - 59.0 °F 68% 29.96 in 10.0 mi SE 9.2 mph - N/A   Overcast